Location: Bednik
(45.3500°N, 16.3833°E)
Time: 02:36:14
(UTC+00:00)

Cosmos 2360 Rocket - Pass Details

Date: 08 August 2020
Orbit: 834 x 845 km, 71.0° (Epoch: 25 September)

Event Time Altitude Azimuth Distance (km) Brightness Sun altitude
Rises 22:12:52 0° 332° (NNW) 3,414 6.5 -27.9°
Reaches altitude 10° 22:15:19 10° 331° (NNW) 2,475 5.5 -28.0°
Enters shadow 22:20:46 75° 274° (W) 876 2.2 -28.2°
